Flag for Russia Weather past 2 weeks in Nizhny Novgorod, Russia

Now
68 °F

Passing clouds.


Feels Like: 68 °F
Forecast: 41 / 65 °F
Wind: 6 mph from Southwest

Location: Nizhny Novgorod/Strigino

Current Time: Sep 21, 2014 at 2:35:40 PM

Latest Report: Sep 21, 2014 at 2:00 PM


Visibility: N/A

Pressure: 30.15 "Hg

Humidity: 35%

Dew point: 39 °F

Location of Nizhny NovgorodLocation

Historic Weather in Nizhny Novgorod — Graph

°F

Nizhny Novgorod temperature yesterday

Maximum temperature yesterday: 68 °F (at 2:30 PM)
Minimum temperature yesterday: 41 °F (at 11:30 PM)
Average temperature yesterday: 55 °F

Past Weeks' High & Low Weather Summary

 TemperatureHumidityPressure
High73 °F (Sep 11, 4:00 PM)100% (Sep 7, 2:00 AM)30.39 "Hg (Sep 7, 2:00 AM)
Low30 °F (Sep 17, 3:00 AM)33% (Sep 10, 4:30 PM)30.01 "Hg (Sep 6, 1:00 PM)
Average52 °F76%30.22 "Hg
* Reported Sep 6 1:00 PM — Sep 21 1:30 PM, Nizhny Novgorod, Weather by CustomWeather, © 2014

Note: Actual official high and low records may vary slightly from our data, if they occured in-between our weather recording intervals... More about our weather records

Advertising

Nizhny Novgorod weather history for previous 24 hours

 ConditionsComfort  
Time TempWeatherWind HumidityBarometerVisibility
1:30 PM
Sep 21
68 °FSunny.6 mph35%30.15 "Hg10 mi
1:00 PM66 °FPassing clouds.6 mph40%30.18 "HgN/A
12:30 PM66 °FPassing clouds.3 mph40%30.18 "HgN/A
12:00 PM66 °FSunny.3 mph43%30.18 "Hg10 mi
11:30 AM64 °FPassing clouds.3 mph46%30.18 "HgN/A
11:00 AM63 °FPassing clouds.1 mph56%30.18 "Hg6 mi
10:30 AM61 °FPassing clouds.1 mph59%30.18 "Hg6 mi
10:00 AM59 °FPassing clouds.1 mph63%30.18 "Hg6 mi
9:30 AM55 °FScattered clouds.1 mph72%30.18 "Hg6 mi
9:00 AM52 °FScattered clouds.No wind94%30.18 "Hg4 mi
8:30 AM48 °FScattered clouds.No wind100%30.18 "Hg4 mi
8:00 AM43 °FFog.No wind93%30.18 "Hg3 mi
7:30 AM37 °FPassing clouds.No wind100%30.18 "Hg0 mi
7:00 AM36 °FPassing clouds.No wind100%30.18 "Hg0 mi
6:30 AM37 °FFog.No wind93%30.18 "Hg0 mi
6:00 AM36 °FFog.No wind100%30.18 "Hg0 mi
5:30 AM39 °FFog.No wind93%30.18 "Hg1 mi
5:00 AM37 °FFog.No wind100%30.18 "Hg0 mi
4:30 AM37 °FPassing clouds.1 mph100%30.18 "Hg1 mi
4:00 AM37 °FFog.No wind100%30.18 "Hg0 mi
3:30 AM39 °FFog.No wind93%30.18 "Hg0 mi
3:00 AM39 °FPassing clouds.No wind93%30.18 "Hg1 mi
2:30 AM39 °FPassing clouds.1 mph93%30.18 "Hg1 mi
2:00 AM39 °FFog.1 mph93%30.18 "Hg2 mi
1:30 AM39 °FFog.No wind100%30.18 "Hg2 mi
1:00 AM39 °FFog.No wind100%30.18 "Hg1 mi
12:30 AM41 °FFog.No wind93%30.18 "Hg1 mi
12:00 AM43 °FFog.No wind93%30.18 "Hg1 mi
11:30 PM
Sep 20
41 °FFog.No wind100%30.18 "Hg2 mi
11:00 PM43 °FFog.No wind93%30.18 "Hg1 mi
10:30 PM45 °FFog.No wind93%30.18 "Hg2 mi
10:00 PM43 °FFog.No wind100%30.18 "Hg3 mi
9:30 PM43 °FFog.No wind100%30.18 "Hg2 mi
5:30 PM68 °FBroken clouds.3 mph40%30.15 "HgN/A
5:00 PM68 °FBroken clouds.6 mph40%30.18 "HgN/A
4:30 PM68 °FBroken clouds.3 mph40%30.18 "HgN/A
4:00 PM68 °FBroken clouds.3 mph40%30.18 "HgN/A
3:30 PM68 °FBroken clouds.6 mph43%30.18 "HgN/A
3:00 PM68 °FBroken clouds.3 mph43%30.18 "HgN/A
2:30 PM68 °FScattered clouds.3 mph43%30.18 "HgN/A
2:00 PM66 °FScattered clouds.3 mph46%30.21 "HgN/A
Weather by CustomWeather, © 2014

See weather overviewHow to use our weather pages